TKJ3222 LTFJ-LTCS

Flight info

Callsign TKJ3222
Flight time 1h 25m
Altitude 37000
Route VICEN UT57 VEVUD UT341 BAG UG8 GEM UW73 ERH/N0369F270 W103 BADEM
Aircraft B738/M-SDE2E3FGHIRWXY/LB1

Departure

Time 2026-05-05 06:09
Airport Istanbul Sabiha Gökçen International Airport (LTFJ)

Arrival

Time 2026-05-05 07:35
Airport Şanlıurfa GAP Airport (LTCS)
Time Latitude Longitude Altitude Speed Heading
2026-05-05 05:47 40.90674 29.31822 310 ft 0 kts 334°
2026-05-05 05:56 40.90671 29.31825 310 ft 3 kts 333°
2026-05-05 05:57 40.90653 29.31837 283 ft 3 kts 333°
2026-05-05 05:57 40.90634 29.31849 312 ft 3 kts 332°
2026-05-05 05:57 40.90615 29.31855 308 ft 3 kts 16°
2026-05-05 05:57 40.90597 29.31842 307 ft 3 kts 60°
2026-05-05 05:58 40.90594 29.31834 307 ft 0 kts 66°
2026-05-05 06:00 40.90597 29.31841 310 ft 2 kts 66°
2026-05-05 06:00 40.90607 29.31873 309 ft 6 kts 66°
2026-05-05 06:00 40.90593 29.31928 309 ft 9 kts 146°
2026-05-05 06:01 40.90530 29.31970 310 ft 12 kts 154°
2026-05-05 06:01 40.90487 29.32058 310 ft 14 kts 75°
2026-05-05 06:01 40.90530 29.32182 309 ft 15 kts 64°
2026-05-05 06:01 40.90575 29.32304 310 ft 14 kts 64°
2026-05-05 06:02 40.90587 29.32389 310 ft 14 kts 104°
2026-05-05 06:02 40.90487 29.32481 311 ft 13 kts 154°
2026-05-05 06:02 40.90434 29.32515 312 ft 13 kts 154°
2026-05-05 06:02 40.90348 29.32569 310 ft 14 kts 154°
2026-05-05 06:03 40.90269 29.32544 309 ft 13 kts 244°
2026-05-05 06:03 40.90229 29.32435 310 ft 13 kts 244°
2026-05-05 06:03 40.90182 29.32309 310 ft 17 kts 244°
2026-05-05 06:03 40.90124 29.32149 310 ft 21 kts 244°
2026-05-05 06:04 40.90023 29.32071 310 ft 20 kts 155°
2026-05-05 06:04 40.89900 29.32150 309 ft 19 kts 154°
2026-05-05 06:04 40.89785 29.32222 305 ft 17 kts 153°
2026-05-05 06:04 40.89678 29.32292 301 ft 17 kts 154°
2026-05-05 06:05 40.89568 29.32350 303 ft 17 kts 168°
2026-05-05 06:05 40.89500 29.32442 301 ft 16 kts 73°
2026-05-05 06:05 40.89548 29.32574 301 ft 16 kts 64°
2026-05-05 06:05 40.89594 29.32702 299 ft 16 kts 64°
2026-05-05 06:06 40.89650 29.32854 297 ft 21 kts 64°
2026-05-05 06:06 40.89721 29.33043 290 ft 25 kts 63°
2026-05-05 06:06 40.89794 29.33242 290 ft 23 kts 64°
2026-05-05 06:06 40.89864 29.33430 295 ft 22 kts 64°
2026-05-05 06:07 40.89930 29.33614 303 ft 22 kts 64°
2026-05-05 06:07 40.89967 29.33714 310 ft 10 kts 64°
2026-05-05 06:07 40.89979 29.33802 313 ft 10 kts 108°
2026-05-05 06:07 40.89923 29.33849 313 ft 10 kts 155°
2026-05-05 06:08 40.89861 29.33886 312 ft 10 kts 155°
2026-05-05 06:08 40.89806 29.33847 306 ft 3 kts 247°
2026-05-05 06:08 40.89795 29.33813 305 ft 21 kts 244°
2026-05-05 06:08 40.89605 29.33300 288 ft 100 kts 244°
2026-05-05 06:09 40.89220 29.32216 329 ft 156 kts 248°
2026-05-05 06:09 40.88765 29.30854 996 ft 166 kts 247°
2026-05-05 06:09 40.88242 29.29458 1845 ft 169 kts 246°
2026-05-05 06:09 40.87649 29.28055 2404 ft 189 kts 238°
2026-05-05 06:10 40.86538 29.26918 2639 ft 217 kts 208°
2026-05-05 06:10 40.85109 29.26004 2823 ft 239 kts 209°
2026-05-05 06:10 40.83577 29.24991 3033 ft 257 kts 209°
2026-05-05 06:10 40.81932 29.23888 3520 ft 267 kts 209°
2026-05-05 06:11 40.80282 29.22776 4169 ft 272 kts 209°
2026-05-05 06:11 40.78588 29.21637 4881 ft 276 kts 209°
2026-05-05 06:11 40.76751 29.20827 5447 ft 283 kts 184°
2026-05-05 06:11 40.74819 29.21143 6199 ft 280 kts 160°
2026-05-05 06:12 40.72984 29.22009 6909 ft 280 kts 157°
2026-05-05 06:12 40.71155 29.22952 7580 ft 283 kts 156°
2026-05-05 06:12 40.69313 29.23918 8274 ft 286 kts 156°
2026-05-05 06:12 40.67516 29.25030 8992 ft 286 kts 142°
2026-05-05 06:13 40.66183 29.26900 9837 ft 279 kts 121°
2026-05-05 06:13 40.65142 29.29073 10466 ft 285 kts 118°
2026-05-05 06:13 40.64068 29.31389 10678 ft 308 kts 118°
2026-05-05 06:13 40.62903 29.33870 10863 ft 330 kts 119°
2026-05-05 06:14 40.61651 29.36486 11327 ft 343 kts 120°
2026-05-05 06:14 40.60379 29.39113 12009 ft 347 kts 120°
2026-05-05 06:14 40.59218 29.41892 12735 ft 347 kts 105°
2026-05-05 06:14 40.58873 29.44987 13501 ft 341 kts 84°
2026-05-05 06:15 40.59110 29.48093 14232 ft 342 kts 79°
2026-05-05 06:15 40.59430 29.51220 14858 ft 347 kts 78°
2026-05-05 06:15 40.59760 29.54389 15517 ft 352 kts 79°
2026-05-05 06:15 40.60082 29.57596 16209 ft 356 kts 79°
2026-05-05 06:16 40.60394 29.60844 16898 ft 360 kts 79°
2026-05-05 06:16 40.60700 29.64141 17565 ft 365 kts 79°
2026-05-05 06:16 40.61006 29.67472 18209 ft 369 kts 79°
2026-05-05 06:16 40.61316 29.70857 18747 ft 375 kts 79°
2026-05-05 06:17 40.61627 29.74281 19332 ft 378 kts 79°
2026-05-05 06:17 40.61940 29.77732 19950 ft 381 kts 79°
2026-05-05 06:17 40.62256 29.81209 20527 ft 384 kts 79°
2026-05-05 06:17 40.62572 29.84711 21164 ft 386 kts 78°
2026-05-05 06:18 40.62888 29.88230 21812 ft 388 kts 78°
2026-05-05 06:18 40.63209 29.91773 22331 ft 393 kts 78°
2026-05-05 06:18 40.63534 29.95360 22829 ft 397 kts 78°
2026-05-05 06:18 40.63861 29.98990 23365 ft 401 kts 78°
2026-05-05 06:19 40.64187 30.02644 23879 ft 404 kts 77°
2026-05-05 06:19 40.64514 30.06331 24336 ft 406 kts 78°
2026-05-05 06:19 40.64842 30.10031 24799 ft 408 kts 78°
2026-05-05 06:19 40.65166 30.13702 25312 ft 409 kts 77°
2026-05-05 06:20 40.65493 30.17424 25847 ft 409 kts 77°
2026-05-05 06:20 40.65823 30.21168 26245 ft 413 kts 77°
2026-05-05 06:20 40.66153 30.24940 26630 ft 416 kts 77°
2026-05-05 06:20 40.66130 30.28805 26975 ft 433 kts 95°
2026-05-05 06:21 40.65131 30.32609 27374 ft 449 kts 114°
2026-05-05 06:21 40.63324 30.36013 27819 ft 457 kts 123°
2026-05-05 06:21 40.61316 30.39278 28170 ft 460 kts 124°
2026-05-05 06:21 40.59286 30.42568 28465 ft 466 kts 123°
2026-05-05 06:22 40.57263 30.45937 28722 ft 470 kts 122°
2026-05-05 06:22 40.55283 30.49370 29079 ft 470 kts 118°
2026-05-05 06:22 40.53675 30.53062 29390 ft 463 kts 108°
2026-05-05 06:22 40.52506 30.56980 29718 ft 458 kts 99°
2026-05-05 06:23 40.51773 30.61034 30027 ft 456 kts 95°
2026-05-05 06:23 40.51109 30.65118 30298 ft 459 kts 95°
2026-05-05 06:23 40.50410 30.69223 30581 ft 461 kts 96°
2026-05-05 06:23 40.49677 30.73330 30917 ft 462 kts 97°
2026-05-05 06:24 40.48828 30.77357 31289 ft 463 kts 100°
2026-05-05 06:24 40.47879 30.81395 31736 ft 461 kts 101°
2026-05-05 06:24 40.46903 30.85404 32173 ft 459 kts 101°
2026-05-05 06:24 40.45930 30.89388 32587 ft 457 kts 101°
2026-05-05 06:25 40.44971 30.93358 32966 ft 456 kts 101°
2026-05-05 06:25 40.44022 30.97321 33443 ft 452 kts 100°
2026-05-05 06:25 40.43123 31.01090 34099 ft 444 kts 100°
2026-05-05 06:25 40.42338 31.04393 34376 ft 443 kts 100°
2026-05-05 06:26 40.40752 31.11112 34470 ft 452 kts 101°
2026-05-05 06:26 40.39960 31.14433 34725 ft 450 kts 101°
2026-05-05 06:26 40.39106 31.17992 35105 ft 446 kts 101°
2026-05-05 06:27 40.38282 31.21433 35313 ft 447 kts 101°
2026-05-05 06:27 40.36988 31.28356 35652 ft 444 kts 96°
2026-05-05 06:27 40.36462 31.31704 36034 ft 439 kts 96°
2026-05-05 06:28 40.35943 31.35092 36227 ft 440 kts 96°
2026-05-05 06:28 40.34871 31.42017 36332 ft 446 kts 97°
2026-05-05 06:28 40.34343 31.45332 36631 ft 443 kts 97°
2026-05-05 06:29 40.33784 31.48785 36893 ft 441 kts 98°
2026-05-05 06:29 40.32655 31.55698 37013 ft 447 kts 98°
2026-05-05 06:30 40.31514 31.62628 37010 ft 448 kts 98°
2026-05-05 06:30 40.30383 31.69460 36996 ft 442 kts 98°
2026-05-05 06:31 40.29108 31.77143 36996 ft 438 kts 98°
2026-05-05 06:31 40.27819 31.84907 37000 ft 442 kts 98°
2026-05-05 06:32 40.26474 31.92829 36988 ft 449 kts 100°
2026-05-05 06:32 40.24809 32.00749 36984 ft 454 kts 102°
2026-05-05 06:33 40.23023 32.08708 36997 ft 456 kts 103°
2026-05-05 06:33 40.21261 32.16639 36971 ft 450 kts 102°
2026-05-05 06:34 40.19546 32.24439 36971 ft 444 kts 102°
2026-05-05 06:34 40.17845 32.32205 36973 ft 444 kts 102°
2026-05-05 06:35 40.16137 32.39969 36978 ft 444 kts 103°
2026-05-05 06:35 40.14420 32.47738 36984 ft 445 kts 103°
2026-05-05 06:36 40.12694 32.55515 36971 ft 446 kts 103°
2026-05-05 06:36 40.10971 32.63253 36985 ft 447 kts 103°
2026-05-05 06:37 40.09226 32.71069 36978 ft 449 kts 103°
2026-05-05 06:37 40.07469 32.78910 36971 ft 450 kts 103°
2026-05-05 06:38 40.05442 32.86677 36971 ft 453 kts 108°
2026-05-05 06:38 40.03135 32.94360 36968 ft 455 kts 109°
2026-05-05 06:39 40.00821 33.02049 36961 ft 456 kts 109°
2026-05-05 06:39 39.98525 33.09772 36954 ft 456 kts 109°
2026-05-05 06:40 39.96240 33.17488 36960 ft 456 kts 109°
2026-05-05 06:40 39.93965 33.25151 36954 ft 456 kts 109°
2026-05-05 06:41 39.91667 33.32866 36959 ft 456 kts 110°
2026-05-05 06:41 39.89368 33.40559 36956 ft 456 kts 110°
2026-05-05 06:42 39.87066 33.48241 36950 ft 455 kts 110°
2026-05-05 06:42 39.84765 33.55901 36959 ft 454 kts 110°
2026-05-05 06:43 39.82583 33.63596 36954 ft 452 kts 104°
2026-05-05 06:43 39.81018 33.71510 36960 ft 451 kts 102°
2026-05-05 06:44 39.79488 33.79432 36959 ft 452 kts 103°
2026-05-05 06:44 39.77883 33.87334 36963 ft 451 kts 104°
2026-05-05 06:45 39.75946 33.95098 36970 ft 452 kts 109°
2026-05-05 06:45 39.73714 34.02741 36961 ft 453 kts 110°
2026-05-05 06:46 39.71498 34.10332 36979 ft 453 kts 110°
2026-05-05 06:46 39.69294 34.18008 36980 ft 454 kts 109°
2026-05-05 06:47 39.67100 34.25703 36963 ft 455 kts 109°
2026-05-05 06:47 39.64899 34.33410 36963 ft 456 kts 110°
2026-05-05 06:48 39.62692 34.41110 36966 ft 456 kts 110°
2026-05-05 06:48 39.60747 34.47875 36965 ft 457 kts 110°
2026-05-05 06:49 39.59122 34.53508 36976 ft 457 kts 110°
2026-05-05 06:49 39.57198 34.60158 36967 ft 458 kts 110°
2026-05-05 06:50 39.55281 34.66783 36971 ft 457 kts 110°
2026-05-05 06:50 39.53283 34.73670 36967 ft 458 kts 110°
2026-05-05 06:51 39.51338 34.80352 36968 ft 457 kts 110°
2026-05-05 06:51 39.49438 34.86874 36963 ft 458 kts 111°
2026-05-05 06:52 39.47466 34.93578 36942 ft 458 kts 110°
2026-05-05 06:52 39.45481 35.00330 36954 ft 457 kts 112°
2026-05-05 06:53 39.43541 35.06845 36955 ft 456 kts 112°
2026-05-05 06:53 39.41572 35.13662 36966 ft 455 kts 110°
2026-05-05 06:54 39.39593 35.20398 36950 ft 455 kts 112°
2026-05-05 06:54 39.37508 35.27481 36949 ft 455 kts 111°
2026-05-05 06:55 39.35299 35.35160 36944 ft 456 kts 111°
2026-05-05 06:55 39.33078 35.42847 36936 ft 457 kts 111°
2026-05-05 06:56 39.30833 35.50560 36933 ft 459 kts 111°
2026-05-05 06:56 39.28576 35.58275 36935 ft 460 kts 111°
2026-05-05 06:57 39.26310 35.65997 36936 ft 460 kts 111°
2026-05-05 06:57 39.24037 35.73727 36932 ft 461 kts 112°
2026-05-05 06:58 39.21750 35.81479 36927 ft 461 kts 112°
2026-05-05 06:58 39.19479 35.89157 36929 ft 461 kts 112°
2026-05-05 06:59 39.17190 35.96878 36920 ft 461 kts 112°
2026-05-05 06:59 39.14885 36.04594 36923 ft 461 kts 113°
2026-05-05 07:00 39.12449 36.12225 36919 ft 460 kts 115°
2026-05-05 07:00 39.09971 36.19808 36920 ft 460 kts 115°
2026-05-05 07:01 39.07501 36.27393 36915 ft 459 kts 114°
2026-05-05 07:01 39.05038 36.34982 36915 ft 459 kts 114°
2026-05-05 07:02 39.02592 36.42508 36915 ft 458 kts 114°
2026-05-05 07:02 39.00130 36.50067 36900 ft 458 kts 115°
2026-05-05 07:03 38.97660 36.57626 36911 ft 458 kts 115°
2026-05-05 07:03 38.95188 36.65169 36910 ft 458 kts 115°
2026-05-05 07:04 38.92715 36.72700 36890 ft 458 kts 115°
2026-05-05 07:04 38.90234 36.80229 36899 ft 457 kts 115°
2026-05-05 07:05 38.87749 36.87756 36898 ft 458 kts 115°
2026-05-05 07:05 38.85257 36.95282 36903 ft 459 kts 115°
2026-05-05 07:05 38.84008 36.99049 36794 ft 459 kts 116°
2026-05-05 07:06 38.82772 37.02768 36479 ft 457 kts 116°
2026-05-05 07:06 38.81537 37.06488 36131 ft 451 kts 116°
2026-05-05 07:06 38.80312 37.10170 35756 ft 447 kts 117°
2026-05-05 07:06 38.79260 37.13323 35435 ft 443 kts 117°
2026-05-05 07:07 38.78204 37.16493 35091 ft 441 kts 117°
2026-05-05 07:07 38.76975 37.20192 34699 ft 437 kts 117°
2026-05-05 07:07 38.75789 37.23765 34307 ft 434 kts 118°
2026-05-05 07:07 38.74608 37.27321 33911 ft 433 kts 118°
2026-05-05 07:08 38.73433 37.30854 33464 ft 430 kts 118°
2026-05-05 07:08 38.72263 37.34368 33057 ft 427 kts 118°
2026-05-05 07:08 38.71117 37.37805 32657 ft 423 kts 118°
2026-05-05 07:08 38.69963 37.41259 32293 ft 419 kts 118°
2026-05-05 07:09 38.68820 37.44679 31922 ft 416 kts 119°
2026-05-05 07:09 38.67685 37.48070 31525 ft 413 kts 119°
2026-05-05 07:09 38.66559 37.51430 31164 ft 410 kts 120°
2026-05-05 07:09 38.65437 37.54771 30807 ft 407 kts 120°
2026-05-05 07:10 38.64324 37.58082 30449 ft 404 kts 120°
2026-05-05 07:10 38.63217 37.61372 30105 ft 401 kts 120°
2026-05-05 07:10 38.62114 37.64645 29680 ft 399 kts 119°
2026-05-05 07:10 38.61022 37.67883 29280 ft 395 kts 120°
2026-05-05 07:11 38.59941 37.71086 28932 ft 390 kts 120°
2026-05-05 07:11 38.58885 37.74217 28529 ft 387 kts 120°
2026-05-05 07:11 38.57825 37.77352 28195 ft 382 kts 120°
2026-05-05 07:11 38.56773 37.80457 27827 ft 379 kts 120°
2026-05-05 07:12 38.55731 37.83530 27477 ft 375 kts 120°
2026-05-05 07:12 38.54696 37.86579 27128 ft 372 kts 120°
2026-05-05 07:12 38.53670 37.89597 26767 ft 369 kts 120°
2026-05-05 07:12 38.52654 37.92586 26453 ft 364 kts 119°
2026-05-05 07:13 38.51651 37.95534 26095 ft 361 kts 119°
2026-05-05 07:13 38.50651 37.98467 25755 ft 358 kts 120°
2026-05-05 07:13 38.49661 38.01371 25422 ft 355 kts 120°
2026-05-05 07:13 38.48676 38.04255 25092 ft 353 kts 120°
2026-05-05 07:14 38.47699 38.07112 24762 ft 350 kts 120°
2026-05-05 07:14 38.46530 38.09785 24409 ft 339 kts 136°
2026-05-05 07:14 38.44816 38.11739 24100 ft 325 kts 153°
2026-05-05 07:14 38.42814 38.12971 23773 ft 317 kts 163°
2026-05-05 07:15 38.40755 38.13949 23431 ft 315 kts 164°
2026-05-05 07:15 38.38690 38.14894 23044 ft 315 kts 165°
2026-05-05 07:15 38.36632 38.15833 22661 ft 314 kts 165°
2026-05-05 07:15 38.34591 38.16772 22353 ft 310 kts 165°
2026-05-05 07:16 38.32597 38.17698 22024 ft 308 kts 164°
2026-05-05 07:16 38.30592 38.18634 21691 ft 306 kts 164°
2026-05-05 07:16 38.28604 38.19565 21366 ft 303 kts 164°
2026-05-05 07:16 38.26632 38.20491 21047 ft 301 kts 163°
2026-05-05 07:17 38.24679 38.21409 20731 ft 298 kts 164°
2026-05-05 07:17 38.22742 38.22320 20430 ft 296 kts 163°
2026-05-05 07:17 38.20816 38.23225 20103 ft 294 kts 163°
2026-05-05 07:17 38.18904 38.24122 19798 ft 292 kts 163°
2026-05-05 07:18 38.16999 38.25014 19500 ft 291 kts 163°
2026-05-05 07:18 38.15099 38.25907 19202 ft 290 kts 163°
2026-05-05 07:18 38.13211 38.26794 18894 ft 289 kts 163°
2026-05-05 07:18 38.11326 38.27679 18604 ft 288 kts 163°
2026-05-05 07:19 38.09450 38.28560 18290 ft 287 kts 163°
2026-05-05 07:19 38.07581 38.29435 17967 ft 286 kts 163°
2026-05-05 07:19 38.05720 38.30307 17630 ft 285 kts 163°
2026-05-05 07:19 38.03867 38.31175 17317 ft 283 kts 163°
2026-05-05 07:20 38.02029 38.32035 17010 ft 280 kts 162°
2026-05-05 07:20 38.00205 38.32888 16710 ft 279 kts 162°
2026-05-05 07:20 37.98373 38.33743 16436 ft 283 kts 162°
2026-05-05 07:20 37.96510 38.34611 16119 ft 287 kts 162°
2026-05-05 07:21 37.94621 38.35505 15830 ft 293 kts 162°
2026-05-05 07:21 37.92707 38.36428 15513 ft 295 kts 161°
2026-05-05 07:21 37.90796 38.37351 15185 ft 293 kts 161°
2026-05-05 07:21 37.88900 38.38264 14882 ft 290 kts 161°
2026-05-05 07:22 37.87021 38.39186 14574 ft 289 kts 160°
2026-05-05 07:22 37.85173 38.40139 14331 ft 285 kts 160°
2026-05-05 07:22 37.83352 38.41089 14105 ft 281 kts 159°
2026-05-05 07:22 37.81578 38.42012 13884 ft 277 kts 159°
2026-05-05 07:23 37.79806 38.42932 13646 ft 274 kts 159°
2026-05-05 07:23 37.78056 38.43837 13450 ft 269 kts 160°
2026-05-05 07:23 37.76337 38.44724 13236 ft 265 kts 160°
2026-05-05 07:23 37.74633 38.45602 13021 ft 265 kts 160°
2026-05-05 07:24 37.72946 38.46561 12785 ft 269 kts 149°
2026-05-05 07:24 37.71552 38.48198 12403 ft 280 kts 132°
2026-05-05 07:24 37.70319 38.50112 12036 ft 281 kts 131°
2026-05-05 07:24 37.69077 38.52028 11658 ft 282 kts 132°
2026-05-05 07:25 37.67827 38.53932 11351 ft 281 kts 132°
2026-05-05 07:25 37.66579 38.55817 11059 ft 279 kts 132°
2026-05-05 07:25 37.65341 38.57683 10780 ft 277 kts 132°
2026-05-05 07:25 37.64156 38.59594 10492 ft 276 kts 129°
2026-05-05 07:26 37.63016 38.61535 10275 ft 275 kts 129°
2026-05-05 07:26 37.61911 38.63494 10039 ft 272 kts 130°
2026-05-05 07:26 37.60569 38.65068 9739 ft 266 kts 155°
2026-05-05 07:26 37.58829 38.65736 9499 ft 260 kts 176°
2026-05-05 07:27 37.57030 38.65667 9228 ft 257 kts 186°
2026-05-05 07:27 37.55243 38.65434 8878 ft 258 kts 187°
2026-05-05 07:27 37.53456 38.65195 8563 ft 258 kts 186°
2026-05-05 07:27 37.51677 38.64962 8250 ft 257 kts 186°
2026-05-05 07:28 37.49895 38.64734 7924 ft 257 kts 186°
2026-05-05 07:28 37.48110 38.64511 7545 ft 259 kts 186°
2026-05-05 07:28 37.46313 38.64290 7237 ft 259 kts 185°
2026-05-05 07:28 37.44526 38.64073 6946 ft 257 kts 185°
2026-05-05 07:29 37.42748 38.63858 6665 ft 256 kts 185°
2026-05-05 07:29 37.40981 38.63646 6390 ft 254 kts 184°
2026-05-05 07:29 37.39267 38.63911 6074 ft 254 kts 156°
2026-05-05 07:29 37.37826 38.65125 5978 ft 246 kts 138°
2026-05-05 07:30 37.36659 38.66660 5841 ft 239 kts 134°
2026-05-05 07:30 37.34508 38.69665 5698 ft 227 kts 135°
2026-05-05 07:30 37.33452 38.71132 5599 ft 225 kts 135°
2026-05-05 07:31 37.32518 38.72683 5353 ft 226 kts 113°
2026-05-05 07:31 37.32486 38.74612 5171 ft 225 kts 70°
2026-05-05 07:31 37.33371 38.76201 5014 ft 220 kts 50°
2026-05-05 07:31 37.34323 38.77667 4807 ft 213 kts 53°
2026-05-05 07:32 37.35282 38.79014 4616 ft 200 kts 46°
2026-05-05 07:32 37.36254 38.80162 4475 ft 182 kts 44°
2026-05-05 07:32 37.37132 38.81154 4382 ft 157 kts 44°
2026-05-05 07:32 37.37936 38.82063 4228 ft 154 kts 44°
2026-05-05 07:33 37.38730 38.82963 4025 ft 153 kts 44°
2026-05-05 07:33 37.39521 38.83859 3821 ft 152 kts 43°
2026-05-05 07:33 37.40304 38.84745 3601 ft 151 kts 45°
2026-05-05 07:33 37.41081 38.85627 3391 ft 151 kts 44°
2026-05-05 07:34 37.41858 38.86508 3176 ft 151 kts 44°
2026-05-05 07:34 37.42638 38.87390 2958 ft 151 kts 44°
2026-05-05 07:34 37.43425 38.88282 2757 ft 153 kts 45°
2026-05-05 07:34 37.44167 38.89122 2698 ft 124 kts 41°
2026-05-05 07:35 37.44617 38.89628 2714 ft 27 kts 41°
2026-05-05 07:35 37.44620 38.89724 2706 ft 12 kts 130°
2026-05-05 07:35 37.44566 38.89803 2720 ft 12 kts 133°
2026-05-05 07:35 37.44512 38.89877 2712 ft 11 kts 131°
2026-05-05 07:36 37.44460 38.89950 2711 ft 11 kts 132°
2026-05-05 07:36 37.44425 38.90030 2706 ft 11 kts 77°
2026-05-05 07:36 37.44477 38.90095 2707 ft 10 kts 40°
2026-05-05 07:36 37.44527 38.90157 2715 ft 9 kts 59°
2026-05-05 07:37 37.44512 38.90215 2712 ft 6 kts 139°
2026-05-05 07:37 37.44476 38.90233 2713 ft 6 kts 169°
2026-05-05 07:37 37.44455 38.90236 2717 ft 0 kts 173°